Theta_e
312 311 311 311 310 309 309 310 314 314 317 316 313 317 317 317 317 318 317 317 317 317 318 318 319 318 318 319 318 318 321 322 322 322 323 321 322 321 320 321 320 320 320 320 320
312 311 311 311 310 309 309 312 314 317 318 316 315 317 317 317 317 317 316 315 316 315 318 319 319 319 320 320 320 322 322 322 321 322 322 321 321 320 321 321 321 320 319 320 320
313 314 313 312 310 309 310 314 316 318 318 315 316 317 316 316 317 317 316 315 316 316 316 318 319 320 320 320 320 321 322 321 320 320 320 320 319 319 320 322 320 319 319 319 320
314 313 311 311 310 310 314 315 317 319 320 318 315 317 315 316 319 317 315 316 316 317 318 318 319 320 320 321 320 321 320 320 320 319 320 320 319 319 319 320 318 318 318 318 319
314 312 310 311 311 313 314 317 318 319 318 317 314 315 316 318 317 316 316 316 317 317 317 318 319 319 320 319 320 321 320 319 319 319 319 319 319 319 319 318 317 318 318 319 319
314 311 311 312 312 314 315 317 318 318 317 318 314 315 317 317 316 316 316 317 318 317 317 318 318 318 319 319 320 319 319 319 319 319 319 319 319 318 319 318 318 318 319 319 319
313 312 311 312 314 315 316 317 317 316 316 315 319 315 318 317 317 318 317 317 317 318 318 317 318 318 319 320 319 319 320 320 320 319 319 318 320 319 319 317 318 318 318 318 318
312 313 311 312 312 313 315 316 316 315 314 315 316 318 318 317 318 318 318 317 317 317 318 317 318 319 319 318 319 319 320 320 321 319 318 318 318 320 318 318 318 318 318 318 318
310 313 312 314 315 315 314 315 315 314 315 315 318 321 320 318 319 318 318 318 317 317 317 317 318 319 319 320 321 321 320 320 319 319 319 319 319 319 318 318 317 317 317 318 320
308 311 313 317 317 318 318 317 318 316 319 319 318 321 319 320 320 318 317 317 318 318 319 319 320 322 322 321 321 320 320 320 320 320 320 319 319 319 317 317 316 316 316 317 320
309 309 313 316 317 316 318 317 319 320 319 319 319 319 318 319 319 319 318 318 318 319 321 320 321 322 321 321 321 321 321 321 321 320 319 319 319 319 317 316 316 316 317 319 320
311 309 311 314 316 319 318 319 319 319 322 319 318 318 316 317 319 319 318 319 319 320 319 321 321 321 320 320 320 321 321 321 321 319 319 319 319 319 317 316 316 317 317 320 321
311 310 311 314 318 318 319 318 317 318 323 321 320 320 320 320 320 319 319 318 319 320 320 320 320 319 319 320 321 321 321 321 320 319 319 319 318 317 317 316 316 317 319 320 320
310 310 311 317 319 318 320 318 314 319 326 322 320 317 318 319 320 319 318 317 319 319 319 319 319 319 320 320 320 321 320 319 319 320 319 318 317 317 317 317 318 317 319 320 321
309 310 310 318 319 320 318 316 317 322 329 323 319 317 319 319 320 320 318 317 318 319 318 320 320 320 320 320 319 320 318 318 318 319 318 318 318 318 318 317 317 318 319 320 320
310 309 310 317 319 319 318 313 322 331 328 321 319 319 320 320 319 318 318 318 318 320 320 319 318 318 319 319 318 318 318 319 319 318 319 318 318 317 317 317 317 319 319 319 320
313 316 315 318 319 316 314 321 328 326 320 320 320 320 321 320 320 319 320 321 320 320 320 319 319 319 318 319 318 318 320 324 319 321 321 318 318 319 318 317 317 317 317 318 319
315 317 317 316 316 316 320 325 324 320 321 319 320 320 321 320 320 319 320 320 320 319 320 319 319 318 319 318 318 318 319 320 322 319 317 317 317 319 318 318 318 317 318 318 316
319 317 317 317 318 319 322 322 323 321 320 320 321 321 321 320 319 320 320 319 319 319 319 320 319 318 317 317 318 320 319 319 322 320 320 319 318 318 318 317 317 317 318 317 316
320 320 317 316 320 324 325 321 322 320 319 320 322 320 320 320 320 320 319 319 318 318 318 319 321 317 316 317 317 318 318 320 322 323 320 316 317 317 318 317 317 317 317 316 317
322 323 316 318 317 323 324 322 320 318 318 320 320 319 320 320 320 319 319 318 318 318 317 317 320 317 317 318 318 317 319 318 319 320 323 320 318 317 318 318 318 317 317 316 316
317 323 312 315 320 320 321 320 317 318 317 318 319 319 320 319 319 318 318 317 318 317 317 317 318 319 318 316 316 317 317 317 326 320 319 323 323 318 318 318 317 317 317 317 316
316 315 311 316 320 318 317 318 316 317 317 317 318 318 317 318 321 317 317 316 316 316 317 317 319 321 317 317 317 317 316 316 317 319 321 324 321 317 316 317 316 317 316 316 315
315 318 313 313 314 317 316 316 316 314 315 315 316 315 316 317 317 316 315 314 315 315 314 315 317 318 321 319 318 317 316 316 317 322 321 321 319 317 316 316 316 315 314 313 313
311 312 308 314 314 314 315 315 314 314 314 313 315 315 315 315 314 314 314 313 312 313 314 317 319 318 317 316 315 316 316 316 316 316 318 317 316 315 315 317 315 313 312 312 312
312 312 311 312 312 313 311 315 314 312 312 314 315 315 313 312 312 313 313 314 315 314 315 314 317 316 317 316 315 315 314 314 314 314 314 314 315 313 312 313 312 311 312 312 310
304 305 310 309 312 311 312 311 311 310 311 311 311 311 311 312 311 311 311 312 312 314 315 316 317 318 318 314 314 317 315 313 312 313 315 317 314 314 315 313 312 312 312 311 309
Wind_Speed
10 10 10 9 8 8 9 14 16 15 13 12 15 19 19 19 18 15 16 14 14 11 10 9 5 7 7 8 6 1 4 6 4 5 5 4 4 7 4 5 8 7 6 3 6
10 9 9 9 8 9 14 17 17 14 13 12 17 19 18 17 13 17 13 13 11 9 5 3 6 4 6 6 4 3 2 5 4 5 3 3 5 4 1 3 7 7 9 8 6
10 10 10 9 10 12 17 18 15 13 13 12 16 15 16 11 8 13 11 13 13 13 8 7 6 5 6 7 5 6 6 5 5 3 4 4 5 4 3 3 5 6 7 7 6
10 10 9 10 11 15 17 16 13 12 12 10 9 11 10 4 3 4 9 11 13 14 10 7 3 3 3 6 5 8 5 2 3 1 2 4 2 3 2 4 2 3 4 5 6
10 10 10 11 12 15 15 13 12 11 11 11 7 7 5 8 10 4 9 10 11 12 12 9 6 4 4 5 5 4 4 3 4 3 1 4 1 5 6 1 2 3 4 7 8
9 9 10 11 12 13 12 11 10 8 8 10 11 12 6 12 6 8 9 8 10 11 12 10 8 7 6 4 3 2 1 4 3 4 2 7 4 6 5 4 7 7 9 10 10
7 7 9 10 11 10 9 8 6 5 4 5 6 8 7 8 8 5 5 5 9 9 12 8 6 2 1 5 1 1 8 6 3 2 2 4 12 12 2 7 9 10 13 13 13
4 5 6 8 8 7 6 5 4 1 2 3 3 7 7 9 6 4 3 3 5 8 9 7 6 7 3 2 4 3 5 5 5 3 6 6 13 4 0 8 12 16 16 13 13
2 3 5 5 5 4 3 2 2 4 2 0 3 3 8 5 3 1 1 2 2 3 4 6 3 3 3 3 6 2 6 6 6 1 6 7 12 12 13 14 18 20 19 12 11
4 4 6 6 4 2 0 3 3 4 3 1 3 4 5 4 1 1 3 3 3 4 4 3 1 5 3 6 6 8 10 8 10 6 10 15 16 14 19 18 21 21 19 10 9
5 2 7 8 4 1 1 1 2 2 1 1 3 1 4 1 2 1 3 4 5 5 6 1 10 4 6 4 7 9 11 12 11 12 11 15 17 18 22 23 16 12 6 7 8
5 0 7 8 5 2 5 2 3 0 3 1 1 1 2 2 3 4 2 4 5 7 3 8 7 2 5 6 8 11 13 13 12 5 13 18 22 19 15 13 10 7 6 8 7
5 1 8 10 6 6 6 4 4 2 3 5 5 5 3 3 2 5 7 5 7 7 6 9 12 2 6 10 10 14 11 13 14 16 18 19 20 9 6 8 8 6 6 7 8
6 2 9 11 6 5 2 4 4 1 6 7 5 3 2 2 4 6 6 5 7 9 9 9 4 5 9 13 6 14 8 8 13 16 15 15 12 15 6 8 10 11 9 9 9
8 5 10 11 6 3 1 6 2 1 5 5 5 2 2 1 3 5 6 5 9 10 5 3 7 9 11 6 3 12 6 14 16 17 18 18 8 3 5 11 11 7 10 11 11
10 9 10 8 4 2 4 1 2 5 3 5 3 1 4 2 2 7 7 5 4 5 4 6 4 6 4 0 3 8 14 16 11 9 10 4 7 11 6 6 7 8 9 9 10
13 13 11 7 1 3 1 4 5 5 3 4 1 1 1 3 0 5 6 5 5 5 4 11 3 3 3 7 6 6 11 6 5 6 11 3 8 15 15 11 11 11 10 10 11
11 9 7 5 3 2 3 5 6 2 2 3 2 2 4 5 1 7 7 3 2 7 8 5 3 0 3 9 12 13 8 5 6 9 16 18 11 4 4 4 7 8 9 8 12
3 5 9 8 6 2 6 4 3 2 2 3 4 4 3 1 5 5 7 4 3 4 5 8 4 3 12 15 7 2 7 6 8 16 14 12 13 13 15 12 11 15 10 15 18
4 2 9 9 7 1 4 4 3 3 4 3 4 2 4 5 5 6 5 4 3 2 2 4 9 11 5 8 13 10 5 5 4 5 13 13 21 16 6 3 7 12 14 17 12
3 3 9 7 5 2 1 4 4 4 5 3 3 5 4 7 5 8 4 3 1 2 4 8 4 6 9 8 14 7 10 10 9 11 15 18 11 14 15 17 17 11 12 23 23
2 2 13 5 1 2 3 2 2 3 4 1 3 4 4 3 7 6 5 2 0 4 11 6 6 14 20 19 13 11 14 16 10 18 18 16 22 18 19 17 33 20 23 21 19
3 3 12 5 1 3 3 3 3 3 4 3 1 2 1 5 4 5 7 2 5 10 3 5 4 7 9 7 4 7 8 11 17 19 24 18 19 17 22 15 25 15 12 19 24
3 1 6 12 6 4 2 3 1 3 1 3 3 2 4 5 4 7 10 6 2 7 10 9 11 14 13 19 18 21 22 21 21 12 21 22 29 26 24 19 19 22 22 23 27
6 4 3 3 6 5 3 1 2 2 1 3 3 2 3 5 11 13 7 10 14 7 3 4 13 15 18 20 21 23 23 21 21 24 21 23 25 20 17 15 18 16 23 27 32
4 3 1 2 1 3 0 2 3 3 2 1 4 1 7 11 13 18 16 12 9 6 3 10 12 14 20 20 18 19 22 24 15 16 18 21 24 18 26 22 20 24 28 32 36
7 5 2 2 0 4 2 2 3 5 2 4 5 10 12 8 10 16 18 19 20 17 16 13 9 10 15 15 20 18 7 14 18 15 13 12 21 23 19 19 25 32 34 37 33
Wind_Direction
62 53 47 43 50 63 95 116 116 107 87 80 107 111 105 95 74 68 57 50 46 41 61 83 101 96 85 77 63 266 217 140 117 191 101 51 352 45 39 53 58 68 52 19 8
54 44 39 44 58 80 109 118 115 101 84 92 122 118 106 97 81 60 57 50 43 34 49 102 98 113 86 69 48 333 112 77 65 75 23 352 332 0 305 100 89 77 61 57 56
46 36 34 53 78 100 116 119 111 94 83 100 135 131 125 105 76 45 62 58 58 47 37 142 109 92 85 67 39 26 85 120 113 42 339 327 275 318 266 154 71 56 37 32 32
44 42 51 76 96 112 120 119 107 94 83 91 145 162 166 351 70 52 71 65 55 41 53 133 148 121 67 83 91 112 82 35 65 83 270 262 9 216 277 74 62 16 5 347 346
45 55 70 88 106 118 123 119 110 94 82 72 98 146 142 102 97 84 77 61 45 48 56 63 79 79 70 106 95 55 84 94 101 105 179 179 117 312 210 239 309 304 298 316 321
47 62 82 98 109 120 125 124 114 98 89 75 94 103 103 94 110 104 99 55 49 53 52 60 68 85 92 105 353 49 90 140 99 61 148 249 272 240 223 246 274 274 295 301 307
54 67 91 103 112 122 131 133 122 99 98 87 90 107 89 102 122 110 81 62 56 51 47 50 64 37 145 143 88 213 239 187 165 350 141 297 253 228 218 274 265 266 282 285 292
62 80 103 107 110 124 143 155 162 144 96 100 112 133 100 130 130 93 71 51 43 44 45 60 79 80 34 117 178 277 246 291 87 304 129 291 279 234 4 264 273 277 276 278 285
71 124 134 123 111 107 127 139 238 243 260 306 110 174 128 141 121 143 48 14 353 8 25 42 65 46 192 248 192 145 331 312 316 137 307 276 302 285 284 281 280 279 276 275 272
28 176 172 159 143 121 113 271 338 217 234 71 156 188 156 126 170 265 302 315 300 298 247 285 261 230 179 336 359 326 316 308 302 342 314 290 282 293 292 282 280 282 279 265 250
7 192 191 187 185 220 319 94 199 174 213 301 125 19 115 47 58 55 322 289 283 266 291 300 288 320 347 317 320 308 297 291 297 327 295 294 293 290 295 295 288 284 273 228 246
347 243 188 183 177 130 76 121 70 106 147 47 175 182 199 131 165 28 358 272 269 288 268 239 261 337 298 282 276 294 289 287 309 277 309 300 295 291 281 279 297 282 248 228 225
345 192 172 170 154 131 104 85 35 72 204 104 115 95 81 142 71 31 2 322 289 286 268 287 303 357 268 276 272 288 286 297 310 310 287 291 286 275 220 264 250 228 264 243 235
18 128 161 158 143 139 82 8 340 145 206 143 155 87 11 190 145 30 5 318 262 305 327 282 18 284 276 283 294 294 13 302 287 294 295 318 291 285 213 247 226 262 248 226 218
43 104 154 156 146 145 231 348 100 192 217 117 112 107 77 254 351 33 3 308 296 311 269 360 305 305 288 338 312 305 323 295 291 288 288 274 238 113 184 260 251 264 224 232 234
60 95 139 140 119 188 298 305 151 226 173 138 127 186 220 54 74 351 357 339 292 284 257 296 304 276 330 346 300 317 285 285 282 269 259 277 239 285 292 295 266 229 239 236 249
81 88 101 116 165 312 293 165 222 267 138 133 133 329 22 1 102 352 345 12 2 321 320 313 178 151 261 271 276 262 303 308 277 219 273 107 262 260 286 275 264 261 265 255 262
88 85 70 50 12 359 161 219 247 66 49 89 317 244 269 345 125 324 314 321 105 336 308 337 247 96 143 304 313 290 293 262 289 302 304 303 268 357 353 293 270 257 259 259 289
112 59 30 7 356 348 228 237 40 53 24 335 271 261 162 211 315 319 331 315 358 353 344 314 261 261 275 296 266 88 249 358 299 277 270 267 262 216 234 262 266 262 257 275 288
208 297 360 360 1 28 246 64 110 55 335 271 285 290 297 354 303 333 318 118 330 246 327 321 293 285 334 280 241 252 344 247 210 276 287 285 310 298 310 283 267 299 291 321 299
204 234 352 350 6 260 11 66 105 51 360 309 307 284 292 313 296 316 289 318 288 198 290 298 286 276 268 251 284 236 226 224 287 275 272 288 280 341 326 302 294 284 332 308 303
47 238 352 12 248 38 62 30 345 354 9 320 280 291 283 307 296 293 283 272 68 306 304 352 286 284 288 287 297 290 280 285 263 275 269 268 273 295 305 2 332 327 324 304 312
36 16 16 34 37 74 98 115 48 11 29 0 277 321 330 294 298 267 288 333 302 284 316 357 287 306 296 156 188 235 270 263 270 280 276 272 277 298 300 231 286 298 315 317 310
14 300 33 49 54 2 23 54 31 32 96 345 324 289 286 277 254 281 286 306 298 283 325 290 256 249 270 291 304 295 292 287 283 273 275 274 288 300 308 312 314 331 325 310 306
31 61 5 18 60 30 329 334 338 10 331 311 184 49 357 290 301 277 290 300 299 298 238 285 273 278 280 291 294 285 288 292 291 292 288 292 291 299 321 335 329 321 311 304 303
38 343 330 102 347 310 54 36 332 353 283 142 271 273 296 285 285 291 301 293 281 273 274 300 282 293 287 284 287 299 290 287 303 315 308 300 302 308 317 320 322 309 303 306 308
30 17 328 123 189 281 56 342 319 337 147 276 307 306 296 315 307 287 282 278 273 279 288 281 277 303 287 307 309 291 327 311 312 306 312 303 304 316 328 322 307 314 307 303 304